Погода в Можайке

Россия / Республика Бурятия     52°24′42″N   110°47′17″E
темп.,
°C
ветер,
м/с
пор.,
м/с
влажн.,
%
обл.,
%
осадки,
мм/ч
давл.,
гПа
погр.,
м
16 мая, вс
вс1623:00+4зюз2558100 0.0 101394
02:00+4зюз41052100 0.0 1013443
05:00+5зюз41173100 0.0 1011849
08:00+7зюз61369100 0.0 1010962
11:00+12з8185391 0.0 10072069
14:00+12з91553100 0.0 10071495
17:00+10з7135993 0.0 10071428
20:00+8з4116792 0.1 10081265
17 мая, пн
пн1723:00+7з497488 0.1 1008838
02:00+3з119169 0.1 100711
05:00+4зсз1188100 0.0 100547
08:00+5зюз2490100 2.3 1004380
11:00+8зсз466395 0.3 10031181
14:00+10сз684412 0.3 10031500
17:00+10сз7103426 0.0 10031839
20:00+6сз485578 0.0 1005744
18 мая, вт
вт1823:00+2сз227482 0.0 100816
02:00+1з22815 0.0 100923
05:00−1зсз228638 0.0 101042
08:00+5зсз59365 0.0 10091967
11:00+8зсз6102542 0.0 10072577
14:00+10зсз61022100 0.0 10053100
17:00+10зсз6102499 0.0 10032921
20:00+7з495298 0.0 1004528
19 мая, ср
ср1923:00+3з2877100 0.1 1005217
02:00+3юз1276100 0.1 100453
05:00+3ю1176100 0.0 100336
08:00+4ююз3282100 0.3 1003593
11:00+7ююз336478 0.1 1001972
14:00+11ююз555234 0.1 9981296
17:00+11юз455490 0.0 9981091
20:00+8зюз226562 0.0 99822
20 мая, чт
чт2023:00+4с33569 0.0 100239
02:00+3св2257100 0.0 100220
05:00+3св41138100 0.0 1003395
08:00+4св4946100 0.3 1003449
11:00+2всв51088100 1.2 1004601
14:00+3всв5993100 1.6 1004516
17:00+4св6889100 0.1 1002533
20:00+4св61094100 0.1 1001516